Year,Month,Day,Hour,Minute,Value (Times are PST for temperature in C)
2017,02,02,00,00,2.90
2017,02,02,00,01,2.90
2017,02,02,00,02,2.90
2017,02,02,00,03,2.90
2017,02,02,00,04,2.90
2017,02,02,00,05,2.90
2017,02,02,00,06,2.90
2017,02,02,00,07,2.90
2017,02,02,00,08,2.80
2017,02,02,00,09,2.80
2017,02,02,00,10,2.80
2017,02,02,00,11,2.80
2017,02,02,00,12,2.80
2017,02,02,00,13,2.80
2017,02,02,00,14,2.80
2017,02,02,00,15,2.80
2017,02,02,00,16,2.80
2017,02,02,00,17,2.80
2017,02,02,00,18,2.70
2017,02,02,00,19,2.70
2017,02,02,00,20,2.70
2017,02,02,00,21,2.80
2017,02,02,00,22,2.80
2017,02,02,00,23,2.80
2017,02,02,00,24,2.80
2017,02,02,00,25,2.70
2017,02,02,00,26,2.70
2017,02,02,00,27,2.70
2017,02,02,00,28,2.70
2017,02,02,00,29,2.70
2017,02,02,00,30,2.70
2017,02,02,00,31,2.70
2017,02,02,00,32,2.70
2017,02,02,00,33,2.70
2017,02,02,00,34,2.70
2017,02,02,00,35,2.80
2017,02,02,00,36,2.80
2017,02,02,00,37,2.80
2017,02,02,00,38,2.80
2017,02,02,00,39,2.80
2017,02,02,00,40,2.80
2017,02,02,00,41,2.80
2017,02,02,00,42,2.80
2017,02,02,00,43,2.80
2017,02,02,00,44,2.70
2017,02,02,00,45,2.70
2017,02,02,00,46,2.70
2017,02,02,00,47,2.70
2017,02,02,00,48,2.70
2017,02,02,00,49,2.70
2017,02,02,00,50,2.70
2017,02,02,00,51,2.70
2017,02,02,00,52,2.70
2017,02,02,00,53,2.70
2017,02,02,00,54,2.70
2017,02,02,00,55,2.70
2017,02,02,00,56,2.70
2017,02,02,00,57,2.60
2017,02,02,00,58,2.60
2017,02,02,00,59,2.60
2017,02,02,01,00,2.70
2017,02,02,01,01,2.70
2017,02,02,01,02,2.70
2017,02,02,01,03,2.70
2017,02,02,01,04,2.70
2017,02,02,01,05,2.70
2017,02,02,01,06,2.60
2017,02,02,01,07,2.60
2017,02,02,01,08,2.60
2017,02,02,01,09,2.60
2017,02,02,01,10,2.60
2017,02,02,01,11,2.60
2017,02,02,01,12,2.60
2017,02,02,01,13,2.70
2017,02,02,01,14,2.70
2017,02,02,01,15,2.70
2017,02,02,01,16,2.70
2017,02,02,01,17,2.60
2017,02,02,01,18,2.60
2017,02,02,01,19,2.60
2017,02,02,01,20,2.60
2017,02,02,01,21,2.60
2017,02,02,01,22,2.60
2017,02,02,01,23,2.60
2017,02,02,01,24,2.60
2017,02,02,01,25,2.60
2017,02,02,01,26,2.60
2017,02,02,01,27,2.60
2017,02,02,01,28,2.60
2017,02,02,01,29,2.60
2017,02,02,01,30,2.50
2017,02,02,01,31,2.50
2017,02,02,01,32,2.60
2017,02,02,01,33,2.60
2017,02,02,01,34,2.50
2017,02,02,01,35,2.50
2017,02,02,01,36,2.50
2017,02,02,01,37,2.50
2017,02,02,01,38,2.50
2017,02,02,01,39,2.60
2017,02,02,01,40,2.60
2017,02,02,01,41,2.60
2017,02,02,01,42,2.50
2017,02,02,01,43,2.50
2017,02,02,01,44,2.50
2017,02,02,01,45,2.50
2017,02,02,01,46,2.50
2017,02,02,01,47,2.50
2017,02,02,01,48,2.50
2017,02,02,01,49,2.50
2017,02,02,01,50,2.50
2017,02,02,01,51,2.50
2017,02,02,01,52,2.50
2017,02,02,01,53,2.50
2017,02,02,01,54,2.50
2017,02,02,01,55,2.60
2017,02,02,01,56,2.50
2017,02,02,01,57,2.50
2017,02,02,01,58,2.50
2017,02,02,01,59,2.50
2017,02,02,02,00,2.50
2017,02,02,02,01,2.50
2017,02,02,02,02,2.50
2017,02,02,02,03,2.50
2017,02,02,02,04,2.50
2017,02,02,02,05,2.50
2017,02,02,02,06,2.50
2017,02,02,02,07,2.40
2017,02,02,02,08,2.40
2017,02,02,02,09,2.40
2017,02,02,02,10,2.40
2017,02,02,02,11,2.40
2017,02,02,02,12,2.40
2017,02,02,02,13,2.40
2017,02,02,02,14,2.40
2017,02,02,02,15,2.40
2017,02,02,02,16,2.40
2017,02,02,02,17,2.40
2017,02,02,02,18,2.40
2017,02,02,02,19,2.40
2017,02,02,02,20,2.40
2017,02,02,02,21,2.40
2017,02,02,02,22,2.30
2017,02,02,02,23,2.30
2017,02,02,02,24,2.40
2017,02,02,02,25,2.40
2017,02,02,02,26,2.40
2017,02,02,02,27,2.40
2017,02,02,02,28,2.40
2017,02,02,02,29,2.30
2017,02,02,02,30,2.30
2017,02,02,02,31,2.30
2017,02,02,02,32,2.30
2017,02,02,02,33,2.30
2017,02,02,02,34,2.30
2017,02,02,02,35,2.30
2017,02,02,02,36,2.30
2017,02,02,02,37,2.30
2017,02,02,02,38,2.30
2017,02,02,02,39,2.30
2017,02,02,02,40,2.30
2017,02,02,02,41,2.30
2017,02,02,02,42,2.30
2017,02,02,02,43,2.30
2017,02,02,02,44,2.30
2017,02,02,02,45,2.30
2017,02,02,02,46,2.30
2017,02,02,02,47,2.30
2017,02,02,02,48,2.20
2017,02,02,02,49,2.20
2017,02,02,02,50,2.20
2017,02,02,02,51,2.20
2017,02,02,02,52,2.20
2017,02,02,02,53,2.20
2017,02,02,02,54,2.20
2017,02,02,02,55,2.20
2017,02,02,02,56,2.20
2017,02,02,02,57,2.20
2017,02,02,02,58,2.20
2017,02,02,02,59,2.20
2017,02,02,03,00,2.20
2017,02,02,03,01,2.20
2017,02,02,03,02,2.20
2017,02,02,03,03,2.20
2017,02,02,03,04,2.20
2017,02,02,03,05,2.20
2017,02,02,03,06,2.20
2017,02,02,03,07,2.20
2017,02,02,03,08,2.20
2017,02,02,03,09,2.20
2017,02,02,03,10,2.20
2017,02,02,03,11,2.20
2017,02,02,03,12,2.20
2017,02,02,03,13,2.20
2017,02,02,03,14,2.30
2017,02,02,03,15,2.30
2017,02,02,03,16,2.30
2017,02,02,03,17,2.20
2017,02,02,03,18,2.20
2017,02,02,03,19,2.20
2017,02,02,03,20,2.20
2017,02,02,03,21,2.20
2017,02,02,03,22,2.20
2017,02,02,03,23,2.20
2017,02,02,03,24,2.20
2017,02,02,03,25,2.20
2017,02,02,03,26,2.20
2017,02,02,03,27,2.20
2017,02,02,03,28,2.20
2017,02,02,03,29,2.20
2017,02,02,03,30,2.20
2017,02,02,03,31,2.20
2017,02,02,03,32,2.20
2017,02,02,03,33,2.10
2017,02,02,03,34,2.20
2017,02,02,03,35,2.20
2017,02,02,03,36,2.20
2017,02,02,03,37,2.20
2017,02,02,03,38,2.20
2017,02,02,03,39,2.10
2017,02,02,03,40,2.10
2017,02,02,03,41,2.20
2017,02,02,03,42,2.20
2017,02,02,03,43,2.20
2017,02,02,03,44,2.20
2017,02,02,03,45,2.20
2017,02,02,03,46,2.20
2017,02,02,03,47,2.20
2017,02,02,03,48,2.20
2017,02,02,03,49,2.20
2017,02,02,03,50,2.20
2017,02,02,03,51,2.20
2017,02,02,03,52,2.20
2017,02,02,03,53,2.20
2017,02,02,03,54,2.20
2017,02,02,03,55,2.20
2017,02,02,03,56,2.20
2017,02,02,03,57,2.20
2017,02,02,03,58,2.20
2017,02,02,03,59,2.20
2017,02,02,04,00,2.20
2017,02,02,04,01,2.20
2017,02,02,04,02,2.10
2017,02,02,04,03,2.10
2017,02,02,04,04,2.10
2017,02,02,04,05,2.20
2017,02,02,04,06,2.20
2017,02,02,04,07,2.20
2017,02,02,04,08,2.20
2017,02,02,04,09,2.20
2017,02,02,04,10,2.20
2017,02,02,04,11,2.20
2017,02,02,04,12,2.20
2017,02,02,04,13,2.20
2017,02,02,04,14,2.20
2017,02,02,04,15,2.20
2017,02,02,04,16,2.10
2017,02,02,04,17,2.10
2017,02,02,04,18,2.20
2017,02,02,04,19,2.20
2017,02,02,04,20,2.20
2017,02,02,04,21,2.20
2017,02,02,04,22,2.20
2017,02,02,04,23,2.20
2017,02,02,04,24,2.10
2017,02,02,04,25,2.10
2017,02,02,04,26,2.10
2017,02,02,04,27,2.10
2017,02,02,04,28,2.10
2017,02,02,04,29,2.20
2017,02,02,04,30,2.20
2017,02,02,04,31,2.20
2017,02,02,04,32,2.20
2017,02,02,04,33,2.20
2017,02,02,04,34,2.20
2017,02,02,04,35,2.20
2017,02,02,04,36,2.10
2017,02,02,04,37,2.10
2017,02,02,04,38,2.00
2017,02,02,04,39,2.00
2017,02,02,04,40,2.00
2017,02,02,04,41,2.00
2017,02,02,04,42,2.00
2017,02,02,04,43,2.00
2017,02,02,04,44,2.00
2017,02,02,04,45,2.00
2017,02,02,04,46,2.00
2017,02,02,04,47,2.00
2017,02,02,04,48,2.10
2017,02,02,04,49,2.10
2017,02,02,04,50,2.10
2017,02,02,04,51,2.10
2017,02,02,04,52,2.10
2017,02,02,04,53,2.10
2017,02,02,04,54,2.10
2017,02,02,04,55,2.10
2017,02,02,04,56,2.10
2017,02,02,04,57,2.10
2017,02,02,04,58,2.10
2017,02,02,04,59,2.10
2017,02,02,05,00,2.00
2017,02,02,05,01,2.00
2017,02,02,05,02,2.00
2017,02,02,05,03,2.00
2017,02,02,05,04,2.00
2017,02,02,05,05,2.00
2017,02,02,05,06,2.00
2017,02,02,05,07,2.00
2017,02,02,05,08,2.00
2017,02,02,05,09,2.00
2017,02,02,05,10,2.00
2017,02,02,05,11,2.00
2017,02,02,05,12,2.00
2017,02,02,05,13,2.00
2017,02,02,05,14,2.10
2017,02,02,05,15,2.10
2017,02,02,05,16,2.10
2017,02,02,05,17,2.10
2017,02,02,05,18,2.10
2017,02,02,05,19,2.10
2017,02,02,05,20,2.10
2017,02,02,05,21,2.10
2017,02,02,05,22,2.10
2017,02,02,05,23,2.10
2017,02,02,05,24,2.10
2017,02,02,05,25,2.10
2017,02,02,05,26,2.10
2017,02,02,08,32,1.90
2017,02,02,08,33,1.90
2017,02,02,08,34,1.90
2017,02,02,08,35,1.90
2017,02,02,08,36,1.90
2017,02,02,08,37,1.90
2017,02,02,08,38,2.00
2017,02,02,08,39,2.00
2017,02,02,08,40,2.10
2017,02,02,08,41,2.10
2017,02,02,08,42,2.10
2017,02,02,08,43,2.20
2017,02,02,08,44,2.20
2017,02,02,08,45,2.20
2017,02,02,08,46,2.20
2017,02,02,08,47,2.20
2017,02,02,08,48,2.20
2017,02,02,08,49,2.30
2017,02,02,08,50,2.30
2017,02,02,08,51,2.30
2017,02,02,08,52,2.30
2017,02,02,08,53,2.30
2017,02,02,08,54,2.30
2017,02,02,08,55,2.30
2017,02,02,08,56,2.40
2017,02,02,08,57,2.40
2017,02,02,08,58,2.40
2017,02,02,08,59,2.40
2017,02,02,09,00,2.40
2017,02,02,09,01,2.40
2017,02,02,09,02,2.50
2017,02,02,09,03,2.50
2017,02,02,09,04,2.50
2017,02,02,09,05,2.50
2017,02,02,09,06,2.60
2017,02,02,09,07,2.60
2017,02,02,09,08,2.60
2017,02,02,09,09,2.60
2017,02,02,09,10,2.60
2017,02,02,09,11,2.60
2017,02,02,09,12,2.70
2017,02,02,09,13,2.70
2017,02,02,09,14,2.70
2017,02,02,09,15,2.70
2017,02,02,09,16,2.70
2017,02,02,09,17,2.80
2017,02,02,09,18,2.70
2017,02,02,09,19,2.80
2017,02,02,09,20,2.80
2017,02,02,09,21,2.80
2017,02,02,09,22,2.80
2017,02,02,09,23,2.90
2017,02,02,09,24,2.90
2017,02,02,09,25,2.90
2017,02,02,09,26,2.90
2017,02,02,09,27,2.90
2017,02,02,09,28,3.00
2017,02,02,09,29,3.00
2017,02,02,09,30,3.10
2017,02,02,09,31,3.10
2017,02,02,09,32,3.10
2017,02,02,09,33,3.10
2017,02,02,09,34,3.20
2017,02,02,09,35,3.20
2017,02,02,09,36,3.20
2017,02,02,09,37,3.20
2017,02,02,09,38,3.20
2017,02,02,09,39,3.20
2017,02,02,09,40,3.20
2017,02,02,09,41,3.20
2017,02,02,09,42,3.20
2017,02,02,09,43,3.20
2017,02,02,09,44,3.20
2017,02,02,09,45,3.20
2017,02,02,09,46,3.20
2017,02,02,09,47,3.30
2017,02,02,09,48,3.30
2017,02,02,09,49,3.30
2017,02,02,09,50,3.30
2017,02,02,09,51,3.30
2017,02,02,09,52,3.20
2017,02,02,09,53,3.30
2017,02,02,09,54,3.30
2017,02,02,09,55,3.30
2017,02,02,09,56,3.30
2017,02,02,09,57,3.30
2017,02,02,09,58,3.30
2017,02,02,09,59,3.30
2017,02,02,10,00,3.30
2017,02,02,10,01,3.30
2017,02,02,10,02,3.30
2017,02,02,10,03,3.30
2017,02,02,10,04,3.30
2017,02,02,10,05,3.30
2017,02,02,10,06,3.30
2017,02,02,10,07,3.30
2017,02,02,10,08,3.40
2017,02,02,10,09,3.40
2017,02,02,10,10,3.40
2017,02,02,10,11,3.50
2017,02,02,10,12,3.50
2017,02,02,10,13,3.50
2017,02,02,10,14,3.50
2017,02,02,10,15,3.60
2017,02,02,10,16,3.60
2017,02,02,10,17,3.60
2017,02,02,10,18,3.70
2017,02,02,10,19,3.70
2017,02,02,10,20,3.70
2017,02,02,10,21,3.70
2017,02,02,10,22,3.80
2017,02,02,10,23,3.80
2017,02,02,10,24,3.80
2017,02,02,10,25,3.80
2017,02,02,10,26,3.90
2017,02,02,10,27,3.90
2017,02,02,10,28,3.90
2017,02,02,10,29,3.90
2017,02,02,10,30,3.90
2017,02,02,10,31,3.90
2017,02,02,10,32,3.90
2017,02,02,10,33,3.90
2017,02,02,10,34,4.00
2017,02,02,10,35,4.00
2017,02,02,10,36,4.00
2017,02,02,10,37,4.10
2017,02,02,10,38,4.10
2017,02,02,10,39,4.10
2017,02,02,10,40,4.10
2017,02,02,10,41,4.10
2017,02,02,10,42,4.10
2017,02,02,10,43,4.20
2017,02,02,10,44,4.20
2017,02,02,10,45,4.20
2017,02,02,10,46,4.20
2017,02,02,10,47,4.20
2017,02,02,10,48,4.20
2017,02,02,10,49,4.20
2017,02,02,10,50,4.20
2017,02,02,10,51,4.20
2017,02,02,10,52,4.20
2017,02,02,10,53,4.20
2017,02,02,10,54,4.20
2017,02,02,10,55,4.20
2017,02,02,10,56,4.20
2017,02,02,10,57,4.20
2017,02,02,10,58,4.30
2017,02,02,10,59,4.30
2017,02,02,11,00,4.30
2017,02,02,11,01,4.30
2017,02,02,11,02,4.20
2017,02,02,11,03,4.20
2017,02,02,11,04,4.20
2017,02,02,11,05,4.20
2017,02,02,11,06,4.20
2017,02,02,11,07,4.20
2017,02,02,11,08,4.30
2017,02,02,11,09,4.30
2017,02,02,11,10,4.30
2017,02,02,11,11,4.30
2017,02,02,11,12,4.30
2017,02,02,11,13,4.40
2017,02,02,11,14,4.40
2017,02,02,11,15,4.50
2017,02,02,11,16,4.50
2017,02,02,11,17,4.50
2017,02,02,11,18,4.60
2017,02,02,11,19,4.60
2017,02,02,11,20,4.60
2017,02,02,11,21,4.60
2017,02,02,11,22,4.60
2017,02,02,11,23,4.60
2017,02,02,11,24,4.60
2017,02,02,11,25,4.60
2017,02,02,11,26,4.60
2017,02,02,11,27,4.60
2017,02,02,11,28,4.60
2017,02,02,11,29,4.60
2017,02,02,11,30,4.60
2017,02,02,11,31,4.60
2017,02,02,11,32,4.60
2017,02,02,11,33,4.60
2017,02,02,11,34,4.60
2017,02,02,11,35,4.60
2017,02,02,11,36,4.60
2017,02,02,11,37,4.60
2017,02,02,11,38,4.60
2017,02,02,11,39,4.60
2017,02,02,11,40,4.60
2017,02,02,11,41,4.70
2017,02,02,11,42,4.70
2017,02,02,11,43,4.80
2017,02,02,11,44,4.80
2017,02,02,11,45,4.80
2017,02,02,11,46,4.90
2017,02,02,11,47,4.90
2017,02,02,11,48,4.90
2017,02,02,11,49,4.90
2017,02,02,11,50,4.90
2017,02,02,11,51,4.80
2017,02,02,11,52,4.80
2017,02,02,11,53,4.80
2017,02,02,11,54,4.80
2017,02,02,11,55,4.90
2017,02,02,11,56,4.90
2017,02,02,11,57,4.80
2017,02,02,11,58,4.80
2017,02,02,11,59,4.80
2017,02,02,12,00,4.80
2017,02,02,12,01,4.90
2017,02,02,12,02,4.90
2017,02,02,12,03,4.90
2017,02,02,12,04,4.90
2017,02,02,12,05,4.90
2017,02,02,12,06,4.90
2017,02,02,12,07,4.90
2017,02,02,12,08,4.90
2017,02,02,12,09,4.90
2017,02,02,12,10,4.90
2017,02,02,12,11,4.90
2017,02,02,12,12,5.00
2017,02,02,12,13,5.00
2017,02,02,12,14,5.00
2017,02,02,12,15,5.10
2017,02,02,12,16,5.10
2017,02,02,12,17,5.10
2017,02,02,12,18,5.10
2017,02,02,12,19,5.10
2017,02,02,12,20,5.10
2017,02,02,12,21,5.10
2017,02,02,12,22,5.00
2017,02,02,12,23,5.00
2017,02,02,12,24,5.00
2017,02,02,12,25,5.10
2017,02,02,12,26,5.10
2017,02,02,12,27,5.10
2017,02,02,12,28,5.10
2017,02,02,12,29,5.10
2017,02,02,12,30,5.20
2017,02,02,12,31,5.20
2017,02,02,12,32,5.20
2017,02,02,12,33,5.20
2017,02,02,12,34,5.20
2017,02,02,12,35,5.30
2017,02,02,12,36,5.30
2017,02,02,12,37,5.30
2017,02,02,12,38,5.30
2017,02,02,12,39,5.40
2017,02,02,12,40,5.40
2017,02,02,12,41,5.40
2017,02,02,12,42,5.40
2017,02,02,12,43,5.50
2017,02,02,12,44,5.50
2017,02,02,12,45,5.40
2017,02,02,12,46,5.40
2017,02,02,12,47,5.40
2017,02,02,12,48,5.40
2017,02,02,12,49,5.30
2017,02,02,12,50,5.30
2017,02,02,12,51,5.30
2017,02,02,12,52,5.30
2017,02,02,12,53,5.20
2017,02,02,12,54,5.20
2017,02,02,12,55,5.20
2017,02,02,12,56,5.20
2017,02,02,12,57,5.20
2017,02,02,12,58,5.20
2017,02,02,12,59,5.20
2017,02,02,13,00,5.20
2017,02,02,13,01,5.20
2017,02,02,13,02,5.20
2017,02,02,13,03,5.20
2017,02,02,13,04,5.20
2017,02,02,13,05,5.20
2017,02,02,13,06,5.20
2017,02,02,13,07,5.20
2017,02,02,13,08,5.20
2017,02,02,13,09,5.20
2017,02,02,13,10,5.20
2017,02,02,13,11,5.20
2017,02,02,13,12,5.20
2017,02,02,13,13,5.30
2017,02,02,13,14,5.30
2017,02,02,13,15,5.30
2017,02,02,13,16,5.30
2017,02,02,13,17,5.30
2017,02,02,13,18,5.30
2017,02,02,13,19,5.30
2017,02,02,13,20,5.30
2017,02,02,13,21,5.30
2017,02,02,13,22,5.30
2017,02,02,13,23,5.30
2017,02,02,13,24,5.30
2017,02,02,13,25,5.30
2017,02,02,13,26,5.40
2017,02,02,13,27,5.40
2017,02,02,13,28,5.30
2017,02,02,13,29,5.30
2017,02,02,13,30,5.30
2017,02,02,13,31,5.30
2017,02,02,13,32,5.30
2017,02,02,13,33,5.30
2017,02,02,13,34,5.30
2017,02,02,13,35,5.30
2017,02,02,13,36,5.30
2017,02,02,13,37,5.30
2017,02,02,13,38,5.30
2017,02,02,13,39,5.30
2017,02,02,13,40,5.30
2017,02,02,13,41,5.30
2017,02,02,13,42,5.30
2017,02,02,13,43,5.40
2017,02,02,13,44,5.40
2017,02,02,13,45,5.50
2017,02,02,13,46,5.50
2017,02,02,13,47,5.60
2017,02,02,13,48,5.60
2017,02,02,13,49,5.70
2017,02,02,13,50,5.70
2017,02,02,13,51,5.70
2017,02,02,13,52,5.70
2017,02,02,13,53,5.70
2017,02,02,13,54,5.70
2017,02,02,13,55,5.70
2017,02,02,13,56,5.70
2017,02,02,13,57,5.70
2017,02,02,13,58,5.70
2017,02,02,13,59,5.70
2017,02,02,14,00,5.70
2017,02,02,14,01,5.70
2017,02,02,14,02,5.70
2017,02,02,14,03,5.60
2017,02,02,14,04,5.60
2017,02,02,14,05,5.50
2017,02,02,14,06,5.50
2017,02,02,14,07,5.50
2017,02,02,14,08,5.60
2017,02,02,14,09,5.60
2017,02,02,14,10,5.60
2017,02,02,14,11,5.50
2017,02,02,14,12,5.50
2017,02,02,14,13,5.50
2017,02,02,14,14,5.50
2017,02,02,14,15,5.50
2017,02,02,14,16,5.50
2017,02,02,14,17,5.40
2017,02,02,14,18,5.40
2017,02,02,14,19,5.40
2017,02,02,14,20,5.40
2017,02,02,14,21,5.40
2017,02,02,14,22,5.40
2017,02,02,14,23,5.40
2017,02,02,14,24,5.40
2017,02,02,14,25,5.40
2017,02,02,14,26,5.40
2017,02,02,14,27,5.40
2017,02,02,14,28,5.30
2017,02,02,14,29,5.30
2017,02,02,14,30,5.30
2017,02,02,14,31,5.30
2017,02,02,14,32,5.30
2017,02,02,14,33,5.40
2017,02,02,14,34,5.40
2017,02,02,14,35,5.40
2017,02,02,14,36,5.40
2017,02,02,14,37,5.40
2017,02,02,14,38,5.40
2017,02,02,14,39,5.40
2017,02,02,14,40,5.40
2017,02,02,14,41,5.40
2017,02,02,14,42,5.40
2017,02,02,14,43,5.30
2017,02,02,14,44,5.30
2017,02,02,14,45,5.30
2017,02,02,14,46,5.30
2017,02,02,14,47,5.30
2017,02,02,14,48,5.30
2017,02,02,14,49,5.30
2017,02,02,14,50,5.30
2017,02,02,14,51,5.30
2017,02,02,14,52,5.30
2017,02,02,14,53,5.30
2017,02,02,14,54,5.30
2017,02,02,14,55,5.30
2017,02,02,14,56,5.30
2017,02,02,14,57,5.30
2017,02,02,14,58,5.30
2017,02,02,14,59,5.30
2017,02,02,15,00,5.30
2017,02,02,15,01,5.40
2017,02,02,15,02,5.30
2017,02,02,15,03,5.40
2017,02,02,15,04,5.40
2017,02,02,15,05,5.40
2017,02,02,15,06,5.40
2017,02,02,15,07,5.40
2017,02,02,15,08,5.40
2017,02,02,15,09,5.40
2017,02,02,15,10,5.40
2017,02,02,15,11,5.40
2017,02,02,15,12,5.40
2017,02,02,15,13,5.40
2017,02,02,15,14,5.40
2017,02,02,15,15,5.40
2017,02,02,15,16,5.40
2017,02,02,15,17,5.40
2017,02,02,15,18,5.40
2017,02,02,15,19,5.40
2017,02,02,15,20,5.40
2017,02,02,15,21,5.40
2017,02,02,15,22,5.40
2017,02,02,15,23,5.40
2017,02,02,15,24,5.40
2017,02,02,15,25,5.40
2017,02,02,15,26,5.40
2017,02,02,15,27,5.40
2017,02,02,15,28,5.40
2017,02,02,15,29,5.40
2017,02,02,15,30,5.40
2017,02,02,15,31,5.40
2017,02,02,15,32,5.30
2017,02,02,15,33,5.30
2017,02,02,15,34,5.30
2017,02,02,15,35,5.30
2017,02,02,15,36,5.40
2017,02,02,15,37,5.40
2017,02,02,15,38,5.40
2017,02,02,15,39,5.40
2017,02,02,15,40,5.40
2017,02,02,15,41,5.40
2017,02,02,15,42,5.40
2017,02,02,15,43,5.40
2017,02,02,15,44,5.40
2017,02,02,15,45,5.40
2017,02,02,15,46,5.40
2017,02,02,15,47,5.40
2017,02,02,15,48,5.40
2017,02,02,15,49,5.40
2017,02,02,15,50,5.40
2017,02,02,15,51,5.40
2017,02,02,15,52,5.40
2017,02,02,15,53,5.40
2017,02,02,15,54,5.40
2017,02,02,15,55,5.30
2017,02,02,15,56,5.30
2017,02,02,15,57,5.30
2017,02,02,15,58,5.30
2017,02,02,15,59,5.30
2017,02,02,16,00,5.30
2017,02,02,16,01,5.30
2017,02,02,16,02,5.30
2017,02,02,16,03,5.30
2017,02,02,16,04,5.30
2017,02,02,16,05,5.30
2017,02,02,16,06,5.30
2017,02,02,16,07,5.30
2017,02,02,16,08,5.20
2017,02,02,16,09,5.20
2017,02,02,16,10,5.20
2017,02,02,16,11,5.20
2017,02,02,16,12,5.20
2017,02,02,16,13,5.20
2017,02,02,16,14,5.20
2017,02,02,16,15,5.20
2017,02,02,16,16,5.20
2017,02,02,16,17,5.20
2017,02,02,16,18,5.20
2017,02,02,16,19,5.10
2017,02,02,16,20,5.10
2017,02,02,16,21,5.10
2017,02,02,16,22,5.10
2017,02,02,16,23,5.10
2017,02,02,16,24,5.10
2017,02,02,16,25,5.10
2017,02,02,16,26,5.10
2017,02,02,16,27,5.00
2017,02,02,16,28,5.00
2017,02,02,16,29,5.00
2017,02,02,16,30,5.00
2017,02,02,16,31,4.90
2017,02,02,16,32,4.90
2017,02,02,16,33,4.90
2017,02,02,16,34,4.90
2017,02,02,16,35,4.90
2017,02,02,16,36,4.80
2017,02,02,16,37,4.80
2017,02,02,16,38,4.80
2017,02,02,16,39,4.80
2017,02,02,16,40,4.80
2017,02,02,16,41,4.80
2017,02,02,16,42,4.80
2017,02,02,16,43,4.80
2017,02,02,16,44,4.70
2017,02,02,16,45,4.70
2017,02,02,16,46,4.70
2017,02,02,16,47,4.70
2017,02,02,16,48,4.70
2017,02,02,16,49,4.70
2017,02,02,16,50,4.70
2017,02,02,16,51,4.70
2017,02,02,16,52,4.70
2017,02,02,16,53,4.60
2017,02,02,16,54,4.60
2017,02,02,16,55,4.60
2017,02,02,16,56,4.60
2017,02,02,16,57,4.60
2017,02,02,16,58,4.60
2017,02,02,16,59,4.60
2017,02,02,17,00,4.60
2017,02,02,17,01,4.60
2017,02,02,17,02,4.60
2017,02,02,17,03,4.60
2017,02,02,17,04,4.50
2017,02,02,17,05,4.50
2017,02,02,17,06,4.50
2017,02,02,17,07,4.50
2017,02,02,17,08,4.40
2017,02,02,17,09,4.40
2017,02,02,17,10,4.40
2017,02,02,17,11,4.40
2017,02,02,17,12,4.40
2017,02,02,17,13,4.40
2017,02,02,17,14,4.30
2017,02,02,17,15,4.30
2017,02,02,17,16,4.30
2017,02,02,17,17,4.30
2017,02,02,17,18,4.30
2017,02,02,17,19,4.30
2017,02,02,17,20,4.30
2017,02,02,17,21,4.30
2017,02,02,17,22,4.30
2017,02,02,17,23,4.30
2017,02,02,17,24,4.30
2017,02,02,17,25,4.30
2017,02,02,17,26,4.30
2017,02,02,17,27,4.30
2017,02,02,17,28,4.30
2017,02,02,17,29,4.30
2017,02,02,17,30,4.30
2017,02,02,17,31,4.30
2017,02,02,17,32,4.20
2017,02,02,17,33,4.20
2017,02,02,17,34,4.20
2017,02,02,17,35,4.20
2017,02,02,17,36,4.20
2017,02,02,17,37,4.20
2017,02,02,17,38,4.20
2017,02,02,17,39,4.20
2017,02,02,17,40,4.20
2017,02,02,17,41,4.20
2017,02,02,17,42,4.20
2017,02,02,17,43,4.20
2017,02,02,17,44,4.20
2017,02,02,17,45,4.10
2017,02,02,17,46,4.10
2017,02,02,17,47,4.10
2017,02,02,17,48,4.10
2017,02,02,17,49,4.10
2017,02,02,17,50,4.10
2017,02,02,17,51,4.10
2017,02,02,17,52,4.10
2017,02,02,17,53,4.10
2017,02,02,17,54,4.10
2017,02,02,17,55,4.10
2017,02,02,17,56,4.20
2017,02,02,17,57,4.20
2017,02,02,17,58,4.20
2017,02,02,17,59,4.20
2017,02,02,18,00,4.20
2017,02,02,18,01,4.20
2017,02,02,18,02,4.20
2017,02,02,18,03,4.20
2017,02,02,18,04,4.20
2017,02,02,18,05,4.10
2017,02,02,18,06,4.10
2017,02,02,18,07,4.10
2017,02,02,18,08,4.10
2017,02,02,18,09,4.10
2017,02,02,18,10,4.10
2017,02,02,18,11,4.10
2017,02,02,18,12,4.10
2017,02,02,18,13,4.10
2017,02,02,18,14,4.10
2017,02,02,18,15,4.10
2017,02,02,18,16,4.10
2017,02,02,18,17,4.10
2017,02,02,18,18,4.10
2017,02,02,18,19,4.10
2017,02,02,18,20,4.10
2017,02,02,18,21,4.10
2017,02,02,18,22,4.10
2017,02,02,18,23,4.10
2017,02,02,18,24,4.10
2017,02,02,18,25,4.10
2017,02,02,18,26,4.10
2017,02,02,18,27,4.10
2017,02,02,18,28,4.10
2017,02,02,18,29,4.10
2017,02,02,18,30,4.10
2017,02,02,18,31,4.10
2017,02,02,18,32,4.00
2017,02,02,18,33,4.00
2017,02,02,18,34,4.00
2017,02,02,18,35,4.10
2017,02,02,18,36,4.10
2017,02,02,18,37,4.10
2017,02,02,18,38,4.10
2017,02,02,18,39,4.10
2017,02,02,18,40,4.10
2017,02,02,18,41,4.10
2017,02,02,18,42,4.10
2017,02,02,18,43,4.10
2017,02,02,18,44,4.10
2017,02,02,18,45,4.10
2017,02,02,18,46,4.10
2017,02,02,18,47,4.10
2017,02,02,18,48,4.10
2017,02,02,18,49,4.10
2017,02,02,18,50,4.10
2017,02,02,18,51,4.10
2017,02,02,18,52,4.10
2017,02,02,18,53,4.20
2017,02,02,18,54,4.20
2017,02,02,18,55,4.20
2017,02,02,18,56,4.20
2017,02,02,18,57,4.20
2017,02,02,18,58,4.20
2017,02,02,18,59,4.20
2017,02,02,19,00,4.20
2017,02,02,19,01,4.20
2017,02,02,19,02,4.20
2017,02,02,19,03,4.20
2017,02,02,19,04,4.30
2017,02,02,19,05,4.30
2017,02,02,19,06,4.30
2017,02,02,19,07,4.20
2017,02,02,19,08,4.20
2017,02,02,19,09,4.20
2017,02,02,19,10,4.20
2017,02,02,19,11,4.20
2017,02,02,19,12,4.20
2017,02,02,19,13,4.20
2017,02,02,19,14,4.20
2017,02,02,19,15,4.20
2017,02,02,19,16,4.20
2017,02,02,19,17,4.20
2017,02,02,19,18,4.20
2017,02,02,19,19,4.20
2017,02,02,19,20,4.20
2017,02,02,19,21,4.20
2017,02,02,19,22,4.20
2017,02,02,19,23,4.20
2017,02,02,19,24,4.20
2017,02,02,19,25,4.20
2017,02,02,19,26,4.10
2017,02,02,19,27,4.10
2017,02,02,19,28,4.10
2017,02,02,19,29,4.10
2017,02,02,19,30,4.10
2017,02,02,19,31,4.10
2017,02,02,19,32,4.10
2017,02,02,19,33,4.00
2017,02,02,19,34,4.00
2017,02,02,19,35,4.00
2017,02,02,19,36,4.00
2017,02,02,19,37,3.90
2017,02,02,19,38,3.90
2017,02,02,19,39,3.90
2017,02,02,19,40,3.90
2017,02,02,19,41,3.90
2017,02,02,19,42,3.90
2017,02,02,19,43,3.90
2017,02,02,19,44,3.90
2017,02,02,19,45,3.90
2017,02,02,19,46,3.90
2017,02,02,19,47,3.90
2017,02,02,19,48,3.90
2017,02,02,19,49,3.90
2017,02,02,19,50,3.90
2017,02,02,19,51,3.90
2017,02,02,19,52,3.90
2017,02,02,19,53,3.90
2017,02,02,19,54,3.90
2017,02,02,19,55,3.90
2017,02,02,19,56,3.90
2017,02,02,19,57,3.90
2017,02,02,19,58,3.90
2017,02,02,19,59,3.90
2017,02,02,20,00,3.90
2017,02,02,20,01,3.80
2017,02,02,20,02,3.80
2017,02,02,20,03,3.80
2017,02,02,20,04,3.80
2017,02,02,20,05,3.80
2017,02,02,20,06,3.80
2017,02,02,20,07,3.80
2017,02,02,20,08,3.80
2017,02,02,20,09,3.70
2017,02,02,20,10,3.70
2017,02,02,20,11,3.70
2017,02,02,20,12,3.70
2017,02,02,20,13,3.70
2017,02,02,20,14,3.70
2017,02,02,20,15,3.70
2017,02,02,20,16,3.70
2017,02,02,20,17,3.70
2017,02,02,20,18,3.60
2017,02,02,20,19,3.70
2017,02,02,20,20,3.70
2017,02,02,20,21,3.70
2017,02,02,20,22,3.70
2017,02,02,20,23,3.70
2017,02,02,20,24,3.70
2017,02,02,20,25,3.70
2017,02,02,20,26,3.80
2017,02,02,20,27,3.80
2017,02,02,20,28,3.80
2017,02,02,20,29,3.80
2017,02,02,20,30,3.70
2017,02,02,20,31,3.70
2017,02,02,20,32,3.70
2017,02,02,20,33,3.70
2017,02,02,20,34,3.70
2017,02,02,20,35,3.70
2017,02,02,20,36,3.70
2017,02,02,20,37,3.70
2017,02,02,20,38,3.70
2017,02,02,20,39,3.60
2017,02,02,20,40,3.60
2017,02,02,20,41,3.60
2017,02,02,20,42,3.60
2017,02,02,20,43,3.60
2017,02,02,20,44,3.60
2017,02,02,20,45,3.60
2017,02,02,20,46,3.60
2017,02,02,20,47,3.60
2017,02,02,20,48,3.60
2017,02,02,20,49,3.60
2017,02,02,20,50,3.60
2017,02,02,20,51,3.50
2017,02,02,20,52,3.50
2017,02,02,20,53,3.50
2017,02,02,20,54,3.50
2017,02,02,20,55,3.40
2017,02,02,20,56,3.40
2017,02,02,20,57,3.40
2017,02,02,20,58,3.40
2017,02,02,20,59,3.50
2017,02,02,21,00,3.50
2017,02,02,21,01,3.40
2017,02,02,21,02,3.40
2017,02,02,21,03,3.40
2017,02,02,21,04,3.50
2017,02,02,21,05,3.50
2017,02,02,21,06,3.50
2017,02,02,21,07,3.60
2017,02,02,21,08,3.60
2017,02,02,21,09,3.50
2017,02,02,21,10,3.50
2017,02,02,21,11,3.50